Wetbulb
55.53 55.35 55.33 55.18 55.16 54.93 54.97 55.03 54.93 55.09 55.10 55.00 54.95 54.89 55.38 55.62 55.53 57.94 54.09 53.36 56.32 58.59 59.95 58.83 55.48 53.27 52.41 52.46 53.59 55.01 47.79 45.86 47.64 48.83 50.87 54.88 53.89 56.14 56.39 54.30 55.62 56.87 58.19 60.82 71.62
55.09 55.05 55.03 54.98 55.03 54.79 54.97 54.67 54.81 54.74 54.71 54.63 54.65 54.66 54.89 55.28 56.15 53.73 55.03 55.11 56.30 58.89 58.66 53.36 51.77 52.73 49.85 49.19 50.76 49.26 46.86 47.30 51.07 51.84 51.40 53.06 53.88 54.60 53.00 53.00 53.21 55.06 57.39 58.76 62.36
54.74 54.77 54.75 54.84 54.80 54.85 54.64 54.42 54.39 54.42 54.48 54.46 54.43 54.58 54.71 55.76 54.63 52.64 56.75 57.34 58.43 59.67 59.02 56.42 53.48 52.35 49.50 49.60 48.43 48.21 45.53 48.85 49.98 51.64 52.16 51.57 52.89 55.00 53.05 51.91 53.56 53.04 55.84 57.47 58.08
54.45 54.70 54.67 54.44 54.29 54.44 54.06 54.29 54.54 55.02 54.80 54.54 54.38 54.61 54.96 56.79 46.16 57.05 60.06 59.58 59.21 59.27 56.32 53.36 52.04 49.39 48.33 47.09 48.96 44.75 47.54 48.74 49.29 50.32 50.62 51.10 53.94 53.12 53.72 53.84 55.98 56.37 56.75 57.47 57.02
54.02 54.63 54.34 54.07 54.16 54.26 54.49 54.51 54.66 54.83 54.80 54.77 54.58 54.76 55.37 53.91 51.10 60.32 60.87 59.85 58.67 56.01 53.04 51.56 50.13 50.08 47.04 47.94 47.75 46.58 47.22 48.03 48.48 48.65 49.52 51.62 51.98 51.93 52.57 55.58 57.00 56.76 56.79 56.56 57.76
54.10 53.85 53.91 53.88 54.06 54.39 54.53 54.89 54.97 54.79 54.47 54.71 54.79 54.73 55.24 49.81 55.83 57.27 58.10 56.55 55.68 54.88 53.31 52.83 51.01 52.08 49.24 48.51 47.74 48.80 47.80 47.69 48.58 48.32 48.63 47.55 49.74 51.13 52.41 55.11 55.75 56.62 56.48 56.80 57.55
54.66 54.28 53.81 53.81 54.10 54.55 55.07 55.04 54.92 54.96 55.39 55.26 55.17 56.04 54.09 51.91 56.90 57.41 56.84 55.80 56.72 55.12 52.43 54.12 53.64 50.72 51.08 47.79 50.43 49.18 45.77 47.43 47.57 47.85 47.14 48.69 45.21 46.40 51.25 53.54 54.17 54.86 56.29 57.13 58.17
54.44 54.31 53.86 53.89 54.22 54.50 54.85 54.82 55.57 56.41 55.12 55.00 55.64 57.27 52.19 57.05 58.49 57.24 57.46 56.42 57.81 57.43 55.41 55.22 54.88 52.20 50.13 51.19 48.32 45.60 46.02 41.66 46.32 47.04 47.60 47.34 41.44 47.33 50.46 50.64 51.09 53.02 54.93 56.40 57.82
54.19 53.90 53.80 53.70 54.01 54.34 54.51 54.35 56.70 56.24 56.07 56.02 56.77 55.80 51.14 55.34 54.44 55.89 56.64 53.84 55.61 56.40 56.42 55.48 53.50 49.99 49.87 46.05 43.96 45.15 40.13 41.82 42.84 47.05 46.37 46.45 43.47 47.60 50.40 50.34 49.80 51.44 53.33 54.57 56.88
53.90 53.65 53.30 53.20 53.76 54.10 54.33 53.80 57.18 55.87 56.93 58.61 56.98 51.50 54.09 51.14 54.32 54.68 56.58 55.11 53.20 53.56 52.75 51.73 50.65 47.25 47.14 44.30 37.72 40.63 40.86 41.85 41.65 45.00 45.62 44.22 44.19 47.52 49.46 49.84 50.30 50.80 52.29 53.83 55.29
53.72 53.43 53.06 52.91 53.57 53.92 54.25 56.58 54.06 53.66 55.25 49.68 50.30 50.15 51.44 54.13 55.48 53.06 54.95 53.20 53.15 51.60 46.47 49.96 44.44 40.58 43.97 46.58 45.95 44.71 42.89 42.22 44.00 46.07 44.37 44.64 44.16 46.21 49.41 49.19 49.77 50.34 52.36 53.73 55.45
52.95 53.03 53.30 53.59 53.47 53.62 55.73 53.49 52.68 53.39 47.78 53.46 52.19 52.02 53.67 54.28 48.98 52.55 54.59 49.33 49.48 45.58 48.18 46.15 42.23 46.73 47.20 47.02 44.63 43.27 41.63 41.75 44.94 46.10 44.62 44.84 44.07 46.74 47.76 48.41 50.21 50.94 52.67 54.05 55.64
52.56 52.69 52.77 53.06 53.51 53.90 55.80 53.99 57.31 56.53 48.95 49.25 51.09 49.99 50.94 51.99 49.31 50.27 51.76 50.29 47.46 45.48 45.35 41.80 45.62 48.22 46.54 45.28 43.43 43.39 41.67 41.30 41.73 44.97 46.19 44.41 42.26 45.34 47.65 49.12 49.47 51.28 52.90 54.30 55.26
52.17 52.36 52.78 52.82 51.49 56.08 54.76 56.92 57.95 57.35 46.36 43.88 46.38 49.77 51.12 52.27 48.72 53.36 53.68 50.42 47.52 44.37 44.70 44.92 48.28 45.92 44.75 43.21 43.89 39.91 45.02 43.84 42.64 40.78 37.24 43.63 34.62 43.35 46.39 46.97 48.10 49.14 51.37 53.11 54.95
51.85 52.36 52.27 51.87 57.01 53.42 54.91 58.17 58.02 56.19 37.69 45.16 46.73 53.67 52.48 49.47 49.94 49.95 53.57 50.72 45.14 45.73 44.32 42.83 43.44 42.83 42.31 44.01 45.23 41.79 46.30 43.99 43.44 41.64 39.16 40.94 36.00 41.69 46.54 44.96 46.98 48.73 49.79 52.09 54.77
51.48 51.93 52.24 56.45 58.63 55.37 57.41 58.31 56.69 44.88 34.64 43.11 47.89 47.43 47.65 48.91 48.54 50.42 50.01 51.91 50.73 45.97 46.27 44.67 49.30 46.31 45.98 46.66 46.34 46.39 44.09 43.88 43.18 39.09 33.02 39.15 37.07 39.28 41.82 45.24 47.33 49.69 50.19 51.28 53.49
51.30 51.29 53.49 56.91 51.62 56.38 57.95 55.15 44.44 38.08 45.46 42.54 43.71 46.75 46.50 45.66 46.19 46.95 45.92 44.56 41.53 36.87 39.56 43.64 45.17 47.86 48.83 44.09 45.61 43.93 39.21 32.00 30.62 31.62 31.79 40.99 37.40 41.02 46.43 48.00 48.77 49.26 50.24 51.38 52.95
50.14 49.58 55.32 56.33 56.10 57.27 56.12 49.24 38.34 41.58 41.98 46.29 45.51 45.79 43.40 45.43 44.82 45.51 44.16 41.17 45.21 43.00 38.93 37.08 35.82 43.17 46.24 43.66 40.59 40.15 38.82 31.36 25.18 29.43 34.01 41.26 35.94 41.34 48.71 49.88 50.26 50.31 51.70 52.22 52.34
49.25 58.60 57.44 54.83 56.56 57.25 52.01 42.06 40.13 42.42 44.17 42.86 44.21 41.99 42.43 44.72 43.81 42.11 43.08 42.60 43.23 43.77 37.13 36.70 36.53 44.89 44.54 44.92 44.02 37.92 34.95 40.87 33.65 37.62 33.90 37.96 39.88 46.60 47.83 47.76 49.00 49.20 51.01 52.01 52.51
54.08 55.71 55.68 55.43 57.97 56.10 48.25 38.07 42.47 45.67 45.69 44.69 39.32 42.61 39.24 41.43 41.02 40.51 39.95 44.42 42.44 45.04 45.46 38.59 31.84 41.42 43.87 44.96 45.06 40.12 42.58 33.38 34.40 27.35 26.31 33.23 35.84 36.72 43.17 45.66 47.87 48.56 49.38 52.19 53.48
54.65 51.23 54.58 55.74 57.82 51.43 43.86 42.43 43.86 45.61 46.71 43.03 41.73 40.87 41.14 38.32 39.34 37.34 38.26 42.98 44.54 43.88 43.31 39.05 32.40 36.59 40.92 39.24 38.74 38.21 35.30 36.92 38.65 36.62 30.17 29.35 34.26 43.18 44.36 47.05 48.18 49.15 50.31 53.02 53.79
54.21 48.13 55.11 55.85 48.05 47.66 44.37 44.14 43.20 45.23 47.29 45.80 45.80 44.36 40.95 39.74 37.86 36.26 36.35 39.63 44.18 42.23 35.76 39.96 34.57 32.87 36.25 43.59 45.21 42.18 39.99 38.82 34.40 32.83 36.72 35.12 35.42 45.08 46.52 47.64 49.36 49.92 51.58 54.61 55.22
51.30 50.97 56.25 54.85 43.08 43.49 46.14 44.73 45.12 44.61 44.63 44.35 43.71 45.47 44.72 40.32 34.83 38.38 40.63 45.02 44.92 41.94 34.78 37.72 34.39 31.79 36.24 41.24 39.11 37.26 39.96 41.93 40.24 40.08 34.65 31.32 34.14 45.18 46.78 47.40 49.19 51.35 51.00 54.34 56.59
52.03 47.72 51.36 51.40 50.07 45.15 43.21 43.89 42.99 46.35 44.89 45.93 45.08 46.00 43.22 41.01 41.80 38.49 39.09 41.85 44.10 43.36 45.23 42.90 35.28 33.38 32.38 36.75 39.09 35.93 37.17 40.95 39.92 34.71 35.19 34.76 36.92 41.71 44.89 45.70 48.61 52.17 51.61 53.74 62.55
53.76 49.49 48.71 44.41 45.94 46.12 46.11 44.56 42.48 41.50 44.92 46.46 44.92 44.55 42.89 37.30 39.21 38.46 40.42 43.60 43.42 43.78 41.96 39.09 33.64 37.26 38.73 38.49 39.04 39.93 39.71 40.32 38.14 38.57 34.41 37.23 38.07 42.89 44.70 46.60 49.85 52.62 52.75 59.86 59.89
49.18 48.30 49.66 48.12 47.71 45.79 44.05 43.80 41.23 42.35 43.42 42.45 42.70 44.42 44.48 39.09 40.09 37.58 40.95 39.80 38.65 39.99 38.69 40.76 34.17 38.08 38.01 41.61 41.65 38.65 39.93 39.26 39.75 39.54 38.54 38.38 39.71 47.05 48.44 48.28 50.19 51.39 58.56 56.95 57.46
54.40 53.44 48.85 46.40 48.18 45.81 44.60 42.82 41.99 44.34 44.88 46.08 45.45 44.45 43.82 44.70 46.13 47.15 47.68 46.53 44.92 38.71 36.59 37.32 35.64 34.25 35.16 40.47 39.82 34.49 34.48 34.17 35.96 37.27 33.67 34.00 41.60 45.40 43.02 50.32 53.39 57.09 58.98 56.51 56.23
MSLP
1020.98 1020.55 1020.14 1019.77 1019.41 1019.02 1018.61 1018.20 1017.82 1017.50 1017.15 1016.81 1016.52 1016.18 1015.76 1015.29 1014.45 1012.41 1011.94 1012.63 1012.27 1012.47 1012.28 1010.04 1009.32 1008.81 1008.27 1007.37 1006.43 1005.55 1004.05 1001.11 999.85 998.82 997.68 997.14 996.05 995.95 997.30 997.73 997.23 996.65 996.70 997.25 998.79
1020.98 1020.53 1020.04 1019.59 1019.23 1018.82 1018.44 1018.05 1017.63 1017.30 1016.98 1016.64 1016.36 1016.11 1015.67 1015.24 1013.74 1011.27 1012.62 1012.60 1012.77 1012.63 1010.89 1009.68 1008.52 1008.31 1007.46 1006.73 1006.09 1005.25 1003.49 1001.72 1001.02 999.51 998.49 997.71 996.74 996.95 997.48 997.88 997.48 997.08 997.03 997.30 998.16
1020.91 1020.47 1020.03 1019.57 1019.11 1018.67 1018.30 1017.93 1017.52 1017.17 1016.89 1016.57 1016.28 1016.02 1015.71 1015.17 1012.38 1011.08 1012.55 1012.73 1012.75 1012.52 1010.90 1009.93 1009.20 1008.25 1006.97 1006.06 1005.47 1004.99 1003.60 1003.10 1001.73 1000.84 1000.11 998.90 998.05 997.92 997.62 997.35 997.56 997.26 997.14 997.52 997.99
1020.81 1020.29 1019.83 1019.33 1018.85 1018.47 1018.12 1017.76 1017.40 1017.06 1016.77 1016.52 1016.22 1016.00 1015.59 1014.30 1011.03 1010.97 1012.46 1012.70 1012.65 1012.09 1010.71 1009.51 1008.75 1007.75 1006.53 1005.43 1005.06 1004.95 1004.38 1003.94 1003.31 1002.71 1001.65 1000.50 1000.18 998.91 998.64 998.34 997.98 997.57 997.39 997.28 997.75
1020.68 1020.09 1019.58 1019.09 1018.61 1018.23 1017.87 1017.51 1017.12 1016.77 1016.49 1016.28 1016.13 1015.94 1015.30 1012.25 1010.41 1011.74 1012.43 1012.47 1011.93 1010.91 1009.99 1009.06 1008.37 1007.51 1006.55 1005.71 1005.23 1004.79 1004.49 1004.10 1003.67 1003.59 1002.79 1002.31 1001.33 1001.10 1000.32 999.68 999.35 998.50 997.97 997.52 997.90
1020.53 1019.93 1019.42 1018.93 1018.41 1017.97 1017.57 1017.18 1016.79 1016.45 1016.18 1015.95 1015.88 1015.85 1014.19 1010.71 1010.53 1010.88 1011.29 1011.10 1010.84 1010.13 1009.30 1009.07 1008.21 1007.99 1007.45 1006.53 1005.84 1005.20 1004.55 1004.24 1004.24 1003.83 1003.24 1002.80 1002.53 1002.63 1001.42 1001.00 1000.20 999.79 998.97 998.61 998.67
1020.37 1019.81 1019.25 1018.74 1018.22 1017.72 1017.28 1016.79 1016.37 1016.02 1015.79 1015.63 1015.64 1015.05 1012.61 1010.25 1010.43 1010.43 1010.73 1010.49 1010.09 1009.95 1009.32 1008.80 1008.85 1008.48 1007.40 1006.59 1005.75 1005.53 1005.11 1004.46 1004.02 1003.71 1003.32 1003.31 1002.55 1001.81 1001.73 1001.15 1000.07 999.91 999.60 999.54 999.12
1020.24 1019.62 1019.03 1018.43 1017.94 1017.46 1017.01 1016.54 1016.02 1015.68 1015.52 1015.45 1015.44 1013.97 1011.09 1010.22 1010.30 1010.10 1009.65 1009.63 1009.59 1009.79 1009.62 1009.25 1009.05 1008.61 1007.93 1007.13 1006.29 1005.55 1004.83 1003.43 1002.45 1002.32 1002.15 1002.87 1001.26 1001.11 1001.23 1001.02 1000.12 999.74 999.24 998.78 998.51
1020.07 1019.42 1018.77 1018.12 1017.60 1017.12 1016.79 1016.35 1015.85 1015.58 1015.37 1015.25 1014.57 1012.85 1009.82 1010.78 1010.01 1009.26 1009.16 1009.12 1008.78 1008.95 1009.36 1009.39 1009.21 1008.40 1007.60 1006.71 1005.48 1004.30 1003.05 1002.07 1001.20 1001.06 1001.31 1001.90 1000.71 1000.38 1000.21 999.50 998.86 998.95 998.71 998.33 998.01
1019.95 1019.19 1018.53 1017.86 1017.29 1016.77 1016.35 1016.15 1015.63 1015.56 1014.90 1013.64 1012.85 1012.10 1009.82 1008.88 1008.99 1009.26 1008.41 1008.46 1008.76 1008.44 1008.26 1008.63 1008.33 1007.51 1006.53 1005.62 1004.13 1002.73 1001.79 1000.96 1000.89 1000.73 1000.73 1000.57 1000.31 999.83 999.42 998.44 997.53 997.43 997.57 997.25 997.13
1019.69 1018.95 1018.19 1017.53 1017.02 1016.51 1015.70 1015.13 1014.55 1013.40 1011.95 1011.00 1010.34 1009.67 1009.13 1008.72 1008.94 1008.13 1007.44 1007.93 1008.35 1008.20 1007.34 1006.56 1006.84 1006.21 1005.75 1004.50 1004.04 1003.56 1002.91 1001.80 1001.27 1000.88 1001.26 1000.61 999.84 999.52 998.76 998.38 997.27 996.43 996.56 996.75 996.47
1019.36 1018.59 1017.80 1017.16 1016.69 1016.14 1015.59 1012.74 1012.90 1012.88 1011.28 1009.75 1009.53 1009.25 1008.97 1008.90 1008.39 1007.14 1007.36 1007.99 1007.33 1006.65 1006.05 1005.60 1004.51 1004.45 1004.65 1004.43 1004.05 1003.74 1003.16 1002.11 1001.48 1001.07 1001.10 1000.10 999.41 999.37 999.01 998.37 997.57 996.73 996.24 996.05 996.23
1018.97 1018.11 1017.35 1016.71 1016.19 1015.62 1013.33 1012.86 1012.73 1012.27 1010.95 1008.96 1008.67 1008.38 1008.00 1008.39 1007.35 1006.95 1007.40 1007.18 1006.83 1006.21 1005.64 1004.84 1004.25 1003.84 1003.97 1003.96 1003.63 1003.36 1003.11 1002.57 1001.97 1001.33 1000.77 1000.97 999.59 998.36 998.03 997.99 997.69 996.98 996.50 996.17 996.05
1018.63 1017.70 1016.84 1016.31 1016.25 1012.75 1012.05 1012.53 1012.26 1012.43 1009.92 1007.93 1007.51 1007.66 1007.91 1007.21 1006.36 1006.65 1006.80 1007.17 1006.76 1006.05 1005.61 1004.65 1003.80 1003.45 1003.24 1002.83 1003.15 1002.53 1003.16 1002.92 1002.74 1002.22 1000.83 1000.45 998.68 997.67 996.54 996.27 996.31 996.33 996.23 996.21 995.67
1018.35 1017.43 1016.63 1016.13 1014.51 1012.35 1012.86 1012.44 1012.34 1012.43 1008.95 1007.75 1007.38 1007.55 1006.99 1006.67 1006.22 1006.23 1007.02 1007.43 1006.56 1005.87 1006.09 1004.42 1004.18 1003.62 1003.09 1002.81 1002.96 1003.17 1003.04 1003.50 1003.27 1002.70 1002.11 1000.00 999.16 995.65 995.64 994.30 994.10 994.40 994.90 995.07 994.99
1018.14 1017.21 1016.37 1014.73 1013.33 1012.38 1012.29 1012.55 1012.50 1010.61 1007.85 1007.53 1006.98 1006.77 1006.50 1005.94 1005.91 1005.71 1005.82 1006.23 1006.33 1006.19 1005.61 1004.48 1003.71 1002.99 1002.29 1002.38 1002.64 1003.63 1004.33 1003.88 1003.49 1003.22 1001.55 999.08 998.63 995.18 994.35 993.10 992.48 992.53 992.90 993.51 993.96
1017.81 1017.04 1016.50 1014.59 1013.04 1012.54 1012.34 1011.49 1010.28 1008.46 1008.35 1007.71 1007.61 1007.40 1006.41 1005.79 1005.99 1005.87 1005.68 1005.57 1006.09 1006.59 1004.96 1003.50 1002.13 1000.90 1001.15 1001.78 1002.50 1003.43 1004.64 1004.21 1003.70 1002.77 998.82 997.75 996.90 994.13 992.89 992.22 991.41 991.17 991.38 991.86 992.71
1017.10 1016.76 1015.05 1013.47 1012.93 1012.67 1012.15 1010.71 1009.24 1008.71 1008.87 1009.21 1008.61 1007.81 1006.42 1006.64 1006.79 1006.23 1005.93 1005.43 1005.56 1005.94 1006.31 1004.54 1002.39 1001.91 1002.39 1003.11 1003.25 1004.33 1005.41 1004.76 1002.94 1000.83 998.38 996.26 994.60 992.73 992.82 992.13 991.08 990.98 990.46 990.60 991.32
1016.58 1014.77 1013.21 1013.09 1012.96 1012.68 1011.43 1009.84 1010.09 1010.36 1010.48 1010.03 1009.23 1007.76 1007.25 1007.55 1007.97 1007.43 1006.60 1005.87 1006.28 1006.91 1007.93 1006.65 1004.37 1003.63 1003.43 1003.67 1004.27 1004.96 1005.19 1004.68 1004.17 1002.08 999.73 996.42 994.87 992.81 991.78 991.26 991.17 991.18 990.39 989.73 990.33
1016.78 1013.83 1012.58 1012.92 1012.78 1012.23 1010.63 1011.10 1010.81 1011.04 1011.22 1010.98 1010.06 1009.10 1008.63 1008.82 1008.85 1008.89 1008.11 1006.86 1007.50 1007.87 1009.24 1008.96 1006.95 1004.82 1003.12 1003.04 1003.11 1004.42 1005.02 1005.45 1004.26 1001.55 998.97 996.83 994.82 993.20 991.77 991.35 991.19 990.83 990.84 989.49 988.57
1016.64 1013.21 1012.77 1012.73 1012.25 1010.90 1010.21 1011.15 1011.33 1011.56 1011.70 1011.77 1010.86 1010.35 1010.00 1010.39 1010.68 1010.27 1009.47 1008.79 1008.96 1009.33 1010.19 1010.35 1009.32 1005.24 1004.02 1002.74 1002.16 1003.99 1004.55 1004.28 1002.92 1001.15 998.85 996.39 994.28 993.97 993.33 992.29 990.72 990.73 990.40 988.57 988.16
1015.80 1012.81 1012.87 1012.69 1011.31 1011.11 1010.92 1012.03 1013.03 1012.06 1011.82 1011.29 1011.15 1010.66 1010.76 1011.17 1011.12 1011.32 1010.33 1009.89 1010.45 1010.93 1010.67 1010.41 1009.27 1006.28 1003.29 1001.30 1000.84 1001.63 1002.32 1002.54 1001.75 999.83 998.15 996.86 994.80 995.53 994.74 993.83 992.35 990.54 989.66 988.41 988.37
1016.42 1013.66 1012.47 1012.76 1012.24 1012.43 1012.38 1012.13 1011.91 1011.77 1011.84 1011.39 1011.23 1010.97 1011.18 1011.49 1011.51 1010.99 1009.93 1009.51 1009.90 1010.63 1010.71 1010.71 1009.42 1006.44 1002.16 1000.74 1002.13 1002.21 1001.93 1001.47 1000.73 1000.33 998.73 997.82 995.75 995.37 995.13 994.40 993.34 991.77 990.14 989.57 988.76
1016.83 1013.96 1012.95 1012.42 1013.07 1012.92 1012.61 1012.21 1011.73 1011.34 1011.51 1011.55 1011.10 1010.48 1010.33 1010.65 1010.97 1009.87 1009.38 1009.51 1009.68 1009.83 1009.96 1009.92 1009.00 1007.11 1004.17 1001.71 1001.95 1001.95 1001.77 1000.54 999.81 999.62 998.47 997.26 996.12 995.83 995.02 994.37 993.75 992.48 990.59 990.09 990.52
1017.32 1015.96 1016.09 1013.96 1013.28 1013.59 1012.93 1012.17 1011.37 1011.14 1011.52 1011.21 1010.27 1010.05 1009.80 1009.61 1009.20 1008.89 1008.96 1007.74 1008.40 1009.05 1009.71 1009.85 1008.14 1006.14 1003.85 1002.53 1001.72 1001.11 1000.74 999.67 999.12 998.91 998.64 997.40 996.14 995.15 995.01 994.82 994.19 992.65 990.80 992.03 992.95
1019.01 1017.95 1016.90 1015.14 1014.27 1013.25 1012.16 1011.61 1011.77 1011.64 1011.43 1010.72 1010.32 1009.65 1009.53 1009.11 1008.89 1007.69 1007.65 1007.68 1008.33 1009.23 1009.49 1009.11 1007.53 1005.65 1002.50 1000.52 999.96 1000.04 1000.47 1000.87 1000.27 1000.04 999.47 998.98 996.59 995.94 995.13 995.27 994.39 992.50 992.31 993.61 994.09
1019.41 1018.83 1018.39 1015.58 1013.66 1012.76 1012.11 1012.21 1011.80 1011.54 1011.07 1010.78 1010.22 1009.40 1008.40 1007.96 1007.86 1006.76 1006.17 1006.64 1007.26 1008.91 1009.09 1008.71 1007.63 1005.65 1001.83 1000.10 1000.16 1001.38 1003.05 1003.36 1002.76 1002.13 1001.91 1000.20 997.48 996.81 996.31 994.64 992.82 992.00 993.24 994.21 995.51
Wind_Speed
17 17 17 16 16 17 17 17 16 16 15 15 14 14 16 17 21 20 11 7 5 6 12 14 9 11 15 16 19 17 19 22 30 30 21 20 25 12 10 19 22 21 13 7 10
18 18 18 18 18 17 16 16 16 15 15 14 14 14 16 17 18 8 6 5 2 8 14 8 11 5 11 14 16 19 18 28 26 23 22 25 22 24 11 20 20 22 21 18 10
19 19 18 18 17 17 16 15 15 14 14 14 14 14 15 16 15 7 7 4 5 10 15 11 12 12 15 12 13 19 22 24 27 23 23 26 25 23 17 22 18 18 20 22 12
19 19 18 17 17 15 14 14 14 14 13 13 13 14 14 15 3 9 10 5 6 13 12 11 10 13 15 13 12 18 21 24 24 25 29 22 22 23 21 19 19 11 17 18 19
20 19 19 18 17 16 15 14 15 15 14 13 12 11 11 11 11 12 10 10 11 10 9 9 10 12 15 13 9 15 16 19 19 20 26 24 21 21 25 22 16 22 15 17 6
19 19 19 17 16 16 15 14 14 14 14 12 10 8 10 9 5 7 9 7 10 9 7 9 7 10 12 15 15 16 17 16 14 18 22 24 27 22 28 23 20 21 21 16 15
19 19 20 18 17 16 15 15 14 12 11 9 8 9 10 5 1 4 8 10 8 8 12 9 8 11 12 13 11 12 18 19 20 21 22 23 27 32 29 27 24 21 24 22 21
20 19 20 19 17 16 15 15 12 8 5 5 7 11 10 6 3 9 8 10 14 12 12 13 10 15 16 15 17 19 19 19 19 24 22 20 26 29 29 30 30 27 22 20 24
21 20 20 20 18 16 14 15 8 4 5 7 9 10 10 7 11 4 13 10 11 9 11 11 11 16 16 17 16 17 17 21 22 21 14 17 25 24 24 27 31 29 26 24 22
21 21 21 20 18 17 14 9 6 7 10 9 7 8 8 5 7 10 16 9 12 12 14 15 15 16 17 15 16 19 18 17 15 15 14 18 22 21 20 25 25 27 29 24 24
23 22 22 20 17 16 16 7 6 10 12 11 13 15 14 5 8 16 6 9 10 13 15 17 15 15 22 19 19 21 24 25 22 20 12 19 21 21 17 21 25 25 20 20 21
25 24 22 19 17 15 10 8 11 9 13 10 6 8 11 7 15 17 1 8 14 16 16 17 20 24 22 22 22 23 25 26 25 21 20 24 23 20 19 22 22 21 17 18 18
25 23 22 18 14 7 6 7 9 8 9 0 4 8 6 5 15 15 1 9 17 20 21 20 22 21 18 21 22 21 24 24 25 24 20 21 26 26 21 26 26 26 23 20 21
26 24 21 17 5 7 4 9 10 3 8 4 2 4 8 13 15 10 12 15 16 20 20 19 21 17 20 24 22 25 21 25 17 20 17 19 21 26 26 27 28 27 26 25 25
27 25 19 7 11 8 9 10 7 5 5 8 4 5 14 16 17 8 6 12 20 22 17 24 25 25 21 21 20 17 14 16 19 21 19 28 16 23 26 29 28 29 29 28 26
27 24 18 6 10 10 10 7 7 9 5 9 9 18 17 11 11 15 12 12 15 20 21 27 26 24 26 23 23 13 15 17 18 14 17 25 22 22 20 24 20 23 30 29 29
27 21 12 8 9 12 9 9 9 5 13 10 21 21 18 17 22 13 14 17 11 6 16 17 23 23 23 20 19 16 10 6 8 12 21 15 18 23 17 28 22 19 24 29 29
29 18 9 7 11 9 9 12 10 13 13 18 16 22 11 21 17 21 20 17 15 11 8 12 12 5 10 14 11 11 12 7 9 15 18 21 23 22 24 24 17 17 22 25 30
31 7 5 9 9 7 11 6 9 13 15 15 20 15 14 20 21 22 21 14 6 5 4 8 9 5 15 18 13 2 11 17 16 20 18 17 5 23 17 14 20 18 19 22 30
10 7 4 11 7 8 7 1 7 7 13 14 18 13 24 22 20 23 15 9 11 6 11 3 14 16 19 9 17 13 2 4 4 7 15 10 20 14 19 18 17 16 20 24 28
7 7 8 12 6 8 5 7 12 14 12 10 17 22 19 16 19 19 8 18 7 9 11 6 7 13 15 11 16 6 4 10 12 11 11 16 12 12 16 17 13 17 24 26 26
7 6 8 11 9 9 9 9 5 12 15 15 12 16 16 18 14 8 11 13 7 7 4 6 5 9 22 23 21 16 19 18 11 13 14 16 19 11 16 18 19 15 23 21 26
9 7 6 10 7 8 12 16 5 11 13 14 14 16 18 18 9 11 19 16 20 6 3 2 5 8 11 3 11 3 11 21 17 16 17 13 7 6 13 21 19 22 26 25 24
7 6 6 6 4 9 13 12 14 10 12 10 17 17 14 19 17 14 24 9 13 15 14 7 6 12 14 20 12 5 13 22 17 12 15 16 19 14 21 16 18 23 27 29 17
5 6 5 8 11 14 15 13 15 17 8 16 16 21 24 19 25 17 21 29 21 4 4 3 8 15 19 23 24 25 19 19 14 17 16 15 18 18 12 13 22 26 25 22 17
7 6 6 13 12 13 10 13 16 16 19 17 17 22 24 18 17 29 26 20 5 4 3 4 7 15 24 19 16 11 4 14 13 14 13 15 26 21 13 15 25 21 26 22 18
5 3 7 11 15 14 12 15 21 19 9 17 21 22 23 24 25 29 21 21 5 3 3 4 5 6 9 10 10 3 6 12 13 10 3 9 18 22 11 23 22 26 28 24 20
Wind_Direction
347 343 340 338 336 334 331 327 325 322 321 320 320 320 320 319 303 267 261 38 12 316 300 261 228 251 240 258 242 240 248 248 248 255 256 263 265 235 214 254 248 247 192 225 98
344 340 337 336 333 330 326 325 323 320 318 315 315 319 320 322 302 268 88 92 303 288 283 324 303 276 248 241 238 232 245 248 262 267 267 269 262 256 223 236 247 241 250 243 146
341 339 335 332 329 325 324 322 318 316 316 313 314 316 313 309 267 80 127 164 250 274 279 296 285 267 274 246 232 244 247 267 278 279 283 279 283 254 236 243 233 238 226 234 187
340 337 335 332 328 323 321 316 312 308 305 302 303 304 305 282 345 98 154 201 263 287 279 275 263 262 258 260 223 251 258 267 279 286 284 290 275 269 270 257 267 247 245 235 205
340 337 337 333 328 324 320 314 309 306 300 293 290 295 282 227 71 122 161 206 253 264 268 287 278 273 265 272 274 267 271 274 271 263 271 275 262 267 271 277 269 276 261 245 225
336 337 336 331 327 324 318 308 302 299 292 281 274 283 256 256 81 154 211 239 258 258 269 283 298 342 297 274 275 280 288 285 280 282 265 255 260 259 259 263 255 261 263 257 247
334 332 333 330 325 321 317 312 307 295 280 264 249 247 265 19 335 223 232 252 281 277 279 253 284 288 301 283 266 280 269 270 256 251 252 261 254 250 256 259 248 234 247 253 257
334 332 330 327 323 318 317 317 308 282 247 229 222 246 280 119 300 243 247 249 237 252 264 284 284 277 274 282 276 265 262 266 262 238 235 230 255 250 246 247 250 250 252 257 233
333 331 328 324 320 315 316 313 288 224 207 189 218 232 275 124 234 294 308 285 308 216 250 266 259 269 268 255 258 242 252 256 267 230 215 245 258 252 253 257 231 238 238 243 241
333 330 327 323 317 312 305 278 192 186 210 215 261 249 241 270 340 311 266 225 267 275 226 223 239 247 239 240 259 277 276 269 253 262 248 241 258 266 251 260 242 229 231 230 234
335 331 327 322 315 308 304 190 231 189 245 301 298 288 281 303 284 279 9 299 243 250 259 255 231 250 261 267 262 273 277 279 281 287 257 261 274 278 271 242 269 225 213 234 232
334 332 329 320 312 301 274 324 16 305 305 277 292 262 264 287 282 309 35 247 239 249 276 268 256 243 252 262 271 269 267 267 273 261 265 264 258 254 256 267 256 253 238 227 228
334 332 328 321 314 271 308 16 331 323 270 144 272 297 319 297 297 317 266 285 278 281 281 273 268 273 258 248 260 267 263 265 273 272 262 277 278 258 245 247 242 251 247 242 236
336 333 327 323 286 335 51 344 317 328 267 77 160 78 288 296 289 335 270 286 286 283 296 286 287 280 274 264 259 255 248 261 298 286 271 260 262 259 249 233 232 231 230 232 238
337 333 325 313 314 356 340 328 343 217 270 16 359 332 268 312 312 286 169 259 277 294 292 275 282 284 269 264 270 294 286 277 257 257 271 259 260 256 249 234 221 221 220 224 224
335 331 326 234 238 5 330 332 238 232 10 332 335 335 321 321 328 307 284 269 284 289 275 270 265 255 253 260 260 251 249 264 274 267 251 247 245 257 247 257 229 226 211 214 216
331 326 302 296 335 329 318 255 260 352 342 352 332 332 303 351 334 329 305 299 272 273 274 296 279 266 228 247 248 238 257 232 233 219 244 247 228 242 243 244 247 229 222 206 210
327 322 215 273 331 319 291 266 284 4 347 334 324 306 312 347 345 331 315 301 287 263 271 286 298 39 20 266 295 272 217 246 265 244 251 241 233 231 244 254 237 252 226 211 206
312 216 259 5 331 298 272 316 356 347 337 325 315 310 328 341 334 346 322 306 357 358 273 313 265 326 303 285 248 3 226 254 260 263 272 269 225 287 263 263 223 238 264 224 198
317 286 42 339 326 275 281 253 328 337 324 318 306 316 322 338 333 342 314 320 344 342 18 310 286 279 288 291 258 198 221 230 199 246 254 252 259 255 241 219 233 225 233 245 202
262 288 42 339 288 280 331 326 325 339 336 326 313 309 323 326 330 321 281 308 6 336 339 277 225 283 288 240 237 175 215 233 268 251 271 277 261 37 340 327 231 216 227 230 195
298 306 31 332 288 358 3 338 331 317 316 312 294 307 319 332 306 291 273 286 27 332 253 249 270 274 276 273 270 223 231 227 245 256 259 261 261 50 292 314 307 222 221 227 196
321 298 110 340 7 352 332 321 270 299 315 309 301 309 320 314 299 246 290 292 323 295 241 201 239 286 293 193 27 281 246 243 239 260 258 260 270 354 306 290 294 298 208 226 199
306 325 350 291 172 346 338 312 322 331 321 302 300 296 297 305 319 287 289 304 280 307 300 238 232 245 276 299 312 236 247 255 230 243 257 257 273 272 269 270 281 285 209 217 132
340 2 28 311 329 327 304 309 309 327 333 311 314 321 322 324 311 308 303 312 318 340 331 243 265 269 264 270 269 269 243 254 233 242 244 261 266 261 274 279 267 263 210 119 130
327 341 329 291 316 300 307 338 327 326 318 313 303 324 317 312 301 315 313 301 290 325 278 229 275 298 286 277 261 224 298 353 314 302 290 267 267 273 283 257 261 254 142 142 118
8 288 274 295 324 315 335 326 315 315 307 307 310 305 316 327 320 300 286 275 226 206 252 271 293 292 275 327 289 123 29 341 294 268 286 244 272 310 300 261 217 149 134 121 118